Regional Weather Roundup
Issued by NWS

Home | Current Version | Previous Version | Text Only | Print | Product List | Glossary On
Versions: 1 2 3 4 5 6 7 8 9 10 11 12 13 14 15 16 17 18 19 20 21 22 23 24 25 26 27 28 29 30 31 32 33 34 35 36 37 38 39 40 41 42 43 44 45 46 47 48 49 50
667
ASCA44 KEWX 091520
RWRMX

LATIN AMERICA AND CARIBBEAN REGIONAL WEATHER ROUNDUP
NATIONAL WEATHER SERVICE AUSTIN/SAN ANTONIO TX
900 AM CST TUE FEB 09 2016

NOTE: "FAIR" INDICATED FEW OR NO CLOUDS BELOW 12,000 FEET WITH NO
SIGNIFICANT WEATHER AND/OR OBSTRUCTIONS TO VISIBILITY.

BAJA CALIFORNIA

CITY           SKY/WX    TMP DP  RH WIND       PRES   REMARKS
LORETO         MOSUNNY   72  50  46 CALM      30.02R
LA PAZ         SUNNY     64  52  63 N5        30.04
MEXICALI       CLEAR     50  25  37 N6        30.19  WCI  48
S.J. DEL CABO  SUNNY     66  43  42 W12       29.98
TIJUANA        CLEAR     68  18  14 E9        30.14R

NORTHWESTERN MEXICO

CITY           SKY/WX    TMP DP  RH WIND       PRES   REMARKS
CULIACAN       MOSUNNY   63  57  82 CALM      29.95
DURANGO        CLOUDY    48  28  46 N6        30.40  WCI  46
GUAYMAS        MOSUNNY   64  41  42 CALM      29.98
HERMOSILLO     CLEAR     48  36  61 CALM      30.06
CD. JUAREZ     MOSUNNY   39  27  60 NE12      30.42  WCI  32
LOS MOCHIS     SUNNY     61  57  88 NW6       29.98S
OBREGON        MOSUNNY   61  45  55 NW6       29.97

NORTHEASTERN MEXICO

CITY           SKY/WX    TMP DP  RH WIND       PRES   REMARKS
CHIHUAHUA      SUNNY     36  10  35 CALM      30.41
MATAMOROS      PTSUNNY   50  37  62 W6        30.43  WCI  48
MONCLOVA         N/A    N/A N/A N/A MISG        N/A
MONTERREY      PTSUNNY   48  25  40 NW5       30.43R WCI  46
NUEVO LAREDO   SUNNY     43  25  49 NW5       30.43  WCI  40
PIEDRAS NEGRAS   N/A    N/A N/A N/A MISG        N/A
REYNOSA        PTSUNNY   52  27  37 W5        30.43
SALTILLO       PTSUNNY   43  28  56 CALM      30.50R
TORREON        PTSUNNY   50  27  40 CALM      30.41R
CD. VICTORIA   CLOUDY    55  39  54 W2        30.45

WESTERN MEXICO

CITY           SKY/WX    TMP DP  RH WIND       PRES   REMARKS
AGUASCALIENTES CLOUDY    48  23  37 N17       30.42  WCI  42
COLIMA         PTSUNNY   70  43  37 N12       30.09R
DEL BAJIO      CLOUDY    48  32  53 NE12      30.43S WCI  43
GUADALAJARA      N/A    N/A N/A N/A MISG        N/A
MANZANILLO     PTSUNNY   75  70  83 CALM      29.94
MAZATLAN       CLOUDY    64  63  94 E6        29.96R
P. VALLARTA    CLOUDY    68  61  77 NE6       29.97R
URUAPAN          N/A    N/A N/A N/A MISG        N/A
ZACATECAS      CLOUDY    45  21  39 E12       30.44R WCI  39

CENTRAL MEXICO

CITY           SKY/WX    TMP DP  RH WIND       PRES   REMARKS
CUERNAVACA     CLOUDY    59  30  33 CALM      30.31R
MEXICO CITY    PTSUNNY   45  32  61 E6        30.46R WCI  41
MORELIA        CLOUDY    48  36  61 CALM      30.37
POZA RICA      CLOUDY    63  57  82 NW9       30.42R
PUEBLA         PTSUNNY   46  30  53 N6        30.42R WCI  43
QUERETARO        N/A    N/A N/A N/A MISG        N/A
S. LUIS POTOSI CLOUDY    41  34  75 NE6       30.46R WCI  37
TAMPICO        PTSUNNY   63  36  36 N10       30.40R
TOLUCA         CLOUDY    41  30  65 SW3       30.44R

SOUTHERN MEXICO

CITY           SKY/WX    TMP DP  RH WIND       PRES   REMARKS
ACAPULCO       MOSUNNY   81  68  65 N5        29.97R
B. DE HUATULCO SUNNY     77  68  73 CALM      30.05
OAXACA         SUNNY     52  34  50 NE5       30.42R
P. ESCONDIDO   SUNNY     79  37  22 CALM      30.09R
VERACRUZ       CLOUDY    66  59  77 CALM      30.35R
ZIHUATANEJO    MOSUNNY   77  70  78 CALM      29.98R

YUCATAN PENINSULA

CITY           SKY/WX    TMP DP  RH WIND       PRES   REMARKS
CAMPECHE       MOSUNNY   66  61  82 CALM      30.26R
CANCUN         PTSUNNY   63  57  82 W6        30.24R
CHETUMAL       MOSUNNY   66  57  72 NW12      30.29
CD. DEL CARMEN PTSUNNY   68  63  83 CALM      30.30
COZUMEL        MOSUNNY   64  59  82 NW12      30.24R
MERIDA         CLOUDY    66  54  63 CALM      30.27R
MINATITLAN     MOSUNNY   64  54  68 CALM      30.31
TAPACHULA      MOSUNNY   81  73  78 N6        30.03R
TUX. GUTIERREZ MOSUNNY   63  50  63 NW8       30.29R
VILLAHERMOSA   MOSUNNY   66  66 100 S5        30.33R

CENTRAL AMERICA

CITY           SKY/WX    TMP DP  RH WIND       PRES   REMARKS
BELIZE CITY      N/A     68  57  68 NW9       30.29R
MANAGUA        MOSUNNY   84  66  54 E14       29.94S

CARIBBEAN

CITY           SKY/WX    TMP DP  RH WIND       PRES   REMARKS
ARUBA          MOSUNNY   86  73  66 E22       29.97F HAZE    HX  93
CURACAO        MOSUNNY   84  73  70 E18       30.03S HX  91
KINGSTON       MOSUNNY   82  70  65 N7        30.06S
NASSAU         CLOUDY    70  64  83 SW9       30.08R
SAN JUAN       MOSUNNY   82  70  65 W6        30.12R
SANTO DOMINGO  MOSUNNY   84  75  74 S7        30.09R HX  92
ST. CROIX      MOSUNNY   84  72  65 E14       30.13
ST. KITTS      MOSUNNY   82  73  74 E18       30.12S
ST. MAARTEN    PTSUNNY   82  72  69 SE12      30.12S
ST. THOMAS     SUNNY     82  72  69 E15       30.12

$$





USA.gov is the U.S. government's official web portal to all federal, state and local government web resources and services.